period_start,C,m1,H,J0,J1,J2,J3,J4,J5,JA,JB,JC,JD,JJ,JK,JN,#
2015-07-26 00:03:34,-0.02,0.00,0.00,24.15,27.67,30.02,4.70,26.86,1013.69,2038.00,3416.25,3244.85,3554.36,349.86,345.20,0.01,0000 0000 0000 0000 000000
2015-07-26 00:08:35,-0.02,0.00,0.00,24.14,27.67,30.03,4.72,26.79,1013.69,2038.00,3414.58,3244.04,3553.56,350.06,345.41,0.04,0000 0000 0000 0000 000000
2015-07-26 00:13:36,-0.02,0.00,0.00,24.15,27.67,30.04,4.74,26.80,1013.69,2038.00,3414.00,3244.00,3553.01,349.92,345.28,0.07,0000 0000 0000 0000 000000
2015-07-26 00:18:38,-0.00,0.00,0.00,24.15,27.67,30.05,4.77,26.91,1013.69,2038.00,3413.30,3244.00,3552.40,350.11,345.37,0.10,0000 0000 0000 0000 000000
2015-07-26 00:23:39,0.00,0.00,0.00,24.15,27.67,30.05,4.72,26.71,1013.69,2038.01,3413.00,3243.99,3552.00,349.99,345.33,0.13,0000 0000 0000 0000 000000
2015-07-26 00:28:40,0.01,0.00,0.00,24.15,27.67,30.04,4.74,26.70,1013.70,2038.00,3412.71,3243.93,3551.94,350.01,345.37,0.15,0000 0000 0000 0000 000000
2015-07-26 00:33:42,0.04,0.00,0.00,24.15,27.67,30.04,4.75,26.79,1013.70,2038.01,3412.09,3243.72,3551.36,350.29,345.57,0.18,0000 0000 0000 0000 000000
2015-07-26 00:38:43,0.02,0.00,0.00,24.15,27.67,30.05,4.74,26.73,1013.70,2038.00,3411.99,3243.19,3551.00,349.97,345.27,0.21,0000 0000 0000 0000 000000
2015-07-26 00:43:44,0.03,0.00,0.00,24.14,27.67,30.05,4.73,26.71,1013.71,2038.00,3411.56,3243.01,3550.76,350.24,345.50,0.24,0000 0000 0000 0000 000000
2015-07-26 00:48:45,0.02,0.00,0.00,24.14,27.67,30.04,4.76,26.70,1013.76,2038.00,3411.04,3243.00,3550.12,350.19,345.66,0.27,0000 0000 0000 0000 000000
2015-07-26 00:53:46,0.00,0.00,0.00,24.15,27.67,30.03,4.74,26.77,1013.75,2038.00,3410.99,3243.00,3550.00,349.79,345.15,0.30,0000 0000 0000 0000 000000
2015-07-26 00:58:48,0.02,0.00,0.00,24.15,27.67,30.03,4.69,26.82,1013.78,2038.00,3410.62,3242.97,3549.94,349.79,345.27,0.33,0000 0000 0000 0000 000000
2015-07-26 01:03:49,0.01,0.00,0.00,24.15,27.67,30.05,4.67,26.63,1013.88,2038.00,3410.17,3242.97,3549.75,349.84,345.17,0.36,0000 0000 0000 0000 000000
2015-07-26 01:08:50,0.02,0.01,0.00,24.15,27.67,30.04,4.70,26.79,1013.90,2038.00,3410.02,3242.89,3549.20,350.02,345.54,0.39,0000 0000 0000 0000 000000
2015-07-26 01:13:51,0.01,0.01,0.00,24.16,27.67,30.04,4.75,26.77,1013.88,2038.00,3410.00,3242.60,3549.02,349.86,345.24,0.42,0000 0000 0000 0000 000000
2015-07-26 01:18:52,0.02,0.01,0.00,24.17,27.67,30.03,4.74,26.71,1014.05,2038.00,3409.88,3242.24,3549.00,350.29,345.73,0.45,0000 0000 0000 0000 000000
2015-07-26 01:23:54,0.02,0.01,0.00,24.17,27.67,30.04,4.73,26.61,1014.11,2038.00,3409.32,3242.05,3548.93,350.24,345.79,0.48,0000 0000 0000 0000 000000
2015-07-26 01:28:55,0.01,0.01,0.00,24.17,27.67,30.04,4.76,26.73,1014.15,2038.01,3409.02,3242.01,3548.63,350.12,345.73,0.51,0000 0000 0000 0000 000000
2015-07-26 01:33:56,0.01,0.01,0.00,24.18,27.67,30.04,4.80,26.66,1014.16,2038.00,3409.00,3242.00,3548.08,350.32,345.66,0.54,0000 0000 0000 0000 000000
2015-07-26 01:38:57,0.00,0.01,0.00,24.19,27.67,30.04,4.76,26.68,1014.15,2038.00,3408.98,3242.00,3548.01,350.22,345.74,0.56,0000 0000 0000 0000 000000
2015-07-26 01:43:58,0.01,0.01,0.00,24.19,27.67,30.05,4.70,26.66,1014.11,2038.00,3408.69,3241.99,3548.00,349.79,345.44,0.59,0000 0000 0000 0000 000000
2015-07-26 01:48:59,0.01,0.01,0.00,24.18,27.67,30.04,4.70,26.61,1014.13,2038.00,3408.15,3241.98,3547.98,349.51,345.30,0.62,0000 0000 0000 0000 000000
2015-07-26 01:54:01,0.00,0.01,0.00,24.18,27.68,30.05,4.85,26.63,1014.17,2038.00,3408.01,3241.90,3547.81,350.60,346.13,0.65,0000 0000 0000 0000 000000
2015-07-26 01:59:02,0.05,0.01,0.00,24.19,27.68,30.05,4.70,26.55,1014.17,2038.00,3407.90,3241.56,3547.22,349.75,345.03,0.68,0000 0000 0000 0000 000000
2015-07-26 02:04:03,0.01,0.01,0.00,24.20,27.69,30.06,4.77,26.54,1014.19,2038.00,3407.76,3241.19,3547.00,350.27,345.76,0.71,0000 0000 0000 0000 000000
2015-07-26 02:09:04,0.03,0.01,0.00,24.20,27.70,30.06,4.72,26.57,1014.19,2038.00,3407.14,3241.04,3547.00,350.02,345.39,0.74,0000 0000 0000 0000 000000
2015-07-26 02:14:06,0.00,0.01,0.00,24.20,27.70,30.06,4.78,26.57,1014.19,2038.00,3407.01,3241.01,3546.99,350.95,346.24,0.77,0000 0000 0000 0000 000000
2015-07-26 02:19:07,0.01,0.01,0.00,24.20,27.70,30.07,4.70,26.61,1014.19,2038.00,3406.98,3241.00,3546.70,349.41,345.01,0.80,0000 0000 0000 0000 000000
2015-07-26 02:24:08,0.02,0.01,0.00,24.20,27.70,30.06,4.66,26.45,1014.19,2038.00,3406.62,3240.99,3546.14,350.00,345.41,0.83,0000 0000 0000 0000 000000
2015-07-26 02:29:09,0.01,0.01,0.00,24.22,27.70,30.05,4.58,26.43,1014.18,2038.00,3406.14,3240.98,3546.02,349.64,345.24,0.86,0000 0000 0000 0000 000000
2015-07-26 02:34:11,0.00,0.01,0.00,24.21,27.70,30.07,4.81,26.58,1014.18,2038.00,3406.00,3240.93,3546.00,349.89,345.26,0.89,0000 0000 0000 0000 000000
2015-07-26 02:39:12,0.03,0.01,0.00,24.22,27.70,30.07,4.80,26.56,1014.18,2038.00,3405.93,3240.52,3545.96,350.51,345.89,0.92,0000 0000 0000 0000 000000
2015-07-26 02:44:13,0.04,0.02,0.00,24.22,27.70,30.07,4.77,26.49,1014.18,2038.00,3405.32,3240.09,3545.44,349.73,345.36,0.95,0000 0000 0000 0000 000000
2015-07-26 02:49:14,0.01,0.02,0.00,24.22,27.70,30.07,4.83,26.51,1014.18,2038.00,3405.03,3240.01,3545.08,350.28,345.77,0.97,0000 0000 0000 0000 000000
2015-07-26 02:54:16,0.00,0.02,0.00,24.22,27.71,30.06,4.60,26.43,1014.18,2038.00,3404.99,3240.00,3545.00,349.44,344.85,1.00,0000 0000 0000 0000 000000
2015-07-26 02:59:17,0.02,0.02,0.00,24.21,27.72,30.07,4.71,26.48,1014.18,2038.00,3404.29,3240.00,3544.94,349.80,345.36,1.03,0000 0000 0000 0000 000000
2015-07-26 03:04:18,0.01,0.02,0.00,24.20,27.72,30.07,4.68,26.52,1014.18,2038.00,3404.01,3239.98,3544.66,349.70,345.10,1.06,0000 0000 0000 0000 000000
2015-07-26 03:09:20,0.02,0.02,0.00,24.20,27.72,30.08,4.84,26.53,1014.19,2038.00,3403.98,3239.74,3544.06,350.74,346.14,1.09,0000 0000 0000 0000 000000
2015-07-26 03:14:21,0.03,0.02,0.00,24.21,27.72,30.08,4.86,26.49,1014.18,2038.00,3403.56,3239.20,3544.00,350.78,346.03,1.12,0000 0000 0000 0000 000000
2015-07-26 03:19:22,0.01,0.02,0.00,24.22,27.72,30.08,4.75,26.45,1014.19,2038.00,3403.03,3239.01,3543.98,350.27,345.45,1.15,0000 0000 0000 0000 000000
2015-07-26 03:24:23,0.01,0.02,0.00,24.22,27.72,30.08,4.76,26.54,1014.21,2038.00,3403.00,3239.00,3543.75,350.12,345.40,1.18,0000 0000 0000 0000 000000
2015-07-26 03:29:24,0.01,0.02,0.00,24.23,27.72,30.08,4.76,26.44,1014.44,2038.00,3402.96,3239.00,3543.27,350.33,345.83,1.21,0000 0000 0000 0000 000000
2015-07-26 03:34:26,0.02,0.02,0.00,24.22,27.72,30.08,4.70,26.52,1014.61,2038.00,3402.37,3239.00,3543.03,350.54,346.17,1.24,0000 0000 0000 0000 000000
2015-07-26 03:39:27,0.00,0.02,0.00,24.22,27.72,30.08,4.75,26.57,1014.56,2038.00,3402.01,3238.96,3543.00,349.44,345.01,1.27,0000 0000 0000 0000 000000
2015-07-26 03:44:28,0.03,0.02,0.00,24.24,27.72,30.09,4.74,26.46,1014.58,2038.00,3401.97,3238.56,3542.86,349.61,345.17,1.30,0000 0000 0000 0000 000000
2015-07-26 03:49:29,0.04,0.02,0.00,24.25,27.73,30.11,4.74,26.32,1014.56,2038.00,3401.50,3238.13,3542.25,349.79,345.41,1.33,0000 0000 0000 0000 000000
2015-07-26 03:54:31,0.01,0.02,0.00,24.25,27.74,30.10,4.69,26.42,1014.63,2038.00,3401.02,3238.02,3542.02,350.28,345.83,1.36,0000 0000 0000 0000 000000
2015-07-26 03:59:32,0.00,0.02,0.00,24.24,27.74,30.10,4.76,26.49,1014.65,2038.00,3400.98,3238.00,3541.99,349.86,345.59,1.39,0000 0000 0000 0000 000000
2015-07-26 04:04:33,0.01,0.02,0.00,24.22,27.75,30.10,4.74,26.38,1014.66,2038.00,3400.76,3237.99,3541.97,350.59,346.25,1.41,0000 0000 0000 0000 000000
2015-07-26 04:09:34,0.02,0.02,0.00,24.24,27.75,30.10,4.75,26.44,1014.66,2037.99,3400.19,3237.98,3541.75,349.69,345.44,1.44,0000 0000 0000 0000 000000
2015-07-26 04:14:35,0.02,0.03,0.00,24.25,27.75,30.10,4.81,26.54,1014.66,2037.99,3400.01,3237.95,3541.13,350.49,346.07,1.47,0000 0000 0000 0000 000000
2015-07-26 04:19:36,0.01,0.03,0.00,24.23,27.75,30.10,4.67,26.27,1014.66,2037.99,3399.99,3237.85,3541.04,350.16,345.54,1.50,0000 0000 0000 0000 000000
2015-07-26 04:24:37,0.04,0.03,0.00,24.24,27.75,30.11,4.74,26.39,1014.67,2037.99,3399.69,3237.26,3541.00,350.13,345.51,1.53,0000 0000 0000 0000 000000
2015-07-26 04:29:38,0.01,0.03,0.00,24.25,27.75,30.11,4.91,26.44,1014.68,2037.99,3399.11,3237.03,3540.96,350.19,345.87,1.56,0000 0000 0000 0000 000000
2015-07-26 04:34:39,0.01,0.03,0.00,24.25,27.75,30.10,4.79,26.34,1014.67,2037.99,3399.00,3237.00,3540.63,349.99,345.56,1.59,0000 0000 0000 0000 000000
2015-07-26 04:39:40,0.01,0.03,0.00,24.24,27.75,30.11,4.69,26.34,1014.68,2037.99,3398.94,3237.00,3540.11,350.11,345.86,1.62,0000 0000 0000 0000 000000
2015-07-26 04:44:42,0.02,0.03,0.00,24.25,27.75,30.11,4.74,26.43,1014.68,2037.99,3398.41,3236.99,3540.01,350.19,345.65,1.65,0000 0000 0000 0000 000000
2015-07-26 04:49:44,0.00,0.03,0.00,24.25,27.76,30.11,4.62,26.18,1014.69,2037.99,3398.01,3236.91,3539.99,349.18,344.87,1.68,0000 0000 0000 0000 000000
2015-07-26 04:54:45,0.01,0.03,0.00,24.25,27.77,30.11,4.75,26.27,1014.72,2037.99,3398.00,3236.54,3539.94,350.50,345.92,1.71,0000 0000 0000 0000 000000
2015-07-26 04:59:46,0.05,0.03,0.00,24.25,27.77,30.12,4.75,26.48,1014.71,2037.98,3397.56,3236.29,3539.44,350.19,345.76,1.74,0000 0000 0000 0000 000000
2015-07-26 05:04:47,0.01,0.03,0.00,24.25,27.77,30.12,4.71,26.29,1014.71,2037.99,3397.07,3236.04,3539.05,350.58,346.17,1.77,0000 0000 0000 0000 000000
2015-07-26 05:09:49,0.00,0.03,0.00,24.27,27.77,30.12,4.76,26.29,1014.71,2037.99,3397.00,3236.00,3539.01,350.48,345.89,1.79,0000 0000 0000 0000 000000
2015-07-26 05:14:50,0.00,0.03,0.00,24.27,27.77,30.13,4.69,26.24,1014.74,2037.98,3396.92,3236.00,3538.97,349.68,345.39,1.82,0000 0000 0000 0000 000000
2015-07-26 05:19:52,0.03,0.03,0.00,24.28,27.77,30.13,4.67,26.32,1014.69,2037.98,3396.19,3235.98,3538.68,349.51,345.18,1.85,0000 0000 0000 0000 000000
2015-07-26 05:24:53,0.04,0.03,0.00,24.29,27.77,30.13,4.67,26.17,1014.71,2037.97,3395.99,3235.39,3538.04,349.29,344.70,1.88,0000 0000 0000 0000 000000
2015-07-26 05:29:54,0.00,0.03,0.00,24.28,27.78,30.14,4.78,26.23,1014.77,2037.98,3395.95,3235.20,3538.00,350.47,346.02,1.91,0000 0000 0000 0000 000000
2015-07-26 05:34:56,0.02,0.03,0.00,24.29,27.79,30.14,4.81,26.37,1014.76,2037.98,3395.45,3235.04,3537.99,350.13,345.59,1.94,0000 0000 0000 0000 000000
2015-07-26 05:39:57,0.01,0.04,0.00,24.28,27.80,30.14,4.65,26.27,1014.80,2037.96,3395.04,3235.00,3537.86,350.20,345.69,1.97,0000 0000 0000 0000 000000
2015-07-26 05:44:58,0.02,0.04,0.00,24.29,27.80,30.15,4.71,26.37,1014.79,2037.97,3394.99,3234.99,3537.21,349.75,345.37,2.00,0000 0000 0000 0000 000000
2015-07-26 05:49:59,0.01,0.04,0.00,24.30,27.80,30.15,4.86,26.38,1014.86,2037.98,3394.88,3234.98,3537.04,350.54,346.14,2.03,0000 0000 0000 0000 000000
2015-07-26 05:55:00,0.03,0.04,0.00,24.30,27.80,30.15,4.77,26.44,1014.83,2037.99,3394.24,3234.87,3537.00,350.08,345.42,2.06,0000 0000 0000 0000 000000
2015-07-26 06:00:02,0.05,0.04,0.00,24.29,27.80,30.16,4.71,26.44,1014.88,2037.95,3393.97,3234.21,3536.64,349.73,345.51,2.09,0000 0000 0000 0000 000000
2015-07-26 06:05:03,0.02,0.04,0.00,24.30,27.80,30.16,4.71,26.28,1015.10,2037.93,3393.47,3234.00,3536.07,350.01,345.80,2.12,0000 0000 0000 0000 000000
2015-07-26 06:10:04,-0.00,0.04,0.00,24.30,27.81,30.17,4.75,26.32,1015.12,2037.92,3393.02,3233.99,3536.01,349.98,345.70,2.15,0000 0000 0000 0000 000000
2015-07-26 06:15:06,0.00,0.04,0.00,24.30,27.82,30.17,4.65,26.26,1015.09,2037.89,3392.99,3233.96,3535.99,349.99,345.62,2.18,0000 0000 0000 0000 000000
2015-07-26 06:20:07,0.01,0.04,0.00,24.31,27.82,30.17,4.68,26.45,1015.09,2037.92,3392.84,3233.85,3535.95,349.51,345.05,2.21,0000 0000 0000 0000 000000
2015-07-26 06:25:08,0.06,0.04,0.00,24.30,27.82,30.18,4.70,26.38,1015.11,2037.87,3392.15,3233.29,3535.36,350.14,345.86,2.23,0000 0000 0000 0000 000000
2015-07-26 06:30:10,-0.00,0.04,0.00,24.30,27.82,30.19,4.70,26.32,1015.11,2037.82,3392.00,3233.03,3535.03,349.58,345.18,2.26,0000 0000 0000 0000 000000
2015-07-26 06:35:11,0.02,0.04,0.00,24.30,27.82,30.20,4.67,26.46,1015.12,2037.90,3391.97,3233.01,3535.00,349.73,345.56,2.29,0000 0000 0000 0000 000000
2015-07-26 06:40:12,0.01,0.04,0.00,24.30,27.82,30.19,4.77,26.59,1015.10,2037.91,3391.64,3233.00,3534.99,349.98,345.55,2.32,0000 0000 0000 0000 000000
2015-07-26 06:45:13,0.01,0.04,0.00,24.31,27.83,30.19,4.69,26.44,1015.10,2037.91,3391.09,3232.99,3534.93,349.59,345.17,2.35,0000 0000 0000 0000 000000
2015-07-26 06:50:15,0.00,0.04,0.00,24.32,27.84,30.19,4.72,26.29,1015.14,2037.80,3391.00,3232.96,3534.26,349.87,345.52,2.38,0000 0000 0000 0000 000000
2015-07-26 06:55:16,0.00,0.04,0.00,24.32,27.84,30.20,4.61,26.34,1015.11,2037.76,3390.92,3232.72,3534.01,349.23,344.90,2.41,0000 0000 0000 0000 000000
2015-07-26 07:00:17,-0.00,0.04,0.00,24.32,27.85,30.20,4.79,26.48,1015.14,2037.38,3390.12,3232.10,3533.85,349.95,345.57,2.44,0000 0000 0000 0000 000000
2015-07-26 07:05:19,0.07,0.04,0.00,24.33,27.85,30.20,4.76,26.43,1015.15,2037.57,3389.92,3232.00,3533.16,349.99,345.73,2.47,0000 0000 0000 0000 000000
2015-07-26 07:10:20,-0.00,0.05,0.00,24.33,27.85,30.20,4.63,26.39,1015.15,2037.55,3389.29,3231.98,3533.02,349.44,344.96,2.50,0000 0000 0000 0000 000000
2015-07-26 07:15:22,-0.00,0.05,0.00,24.32,27.85,30.20,4.65,26.23,1015.15,2037.34,3389.01,3231.76,3532.99,349.50,345.24,2.53,0000 0000 0000 0000 000000
2015-07-26 07:20:23,0.02,0.04,0.00,24.32,27.85,30.21,4.69,26.32,1015.15,2037.15,3388.82,3231.14,3532.68,349.23,345.09,2.56,0000 0000 0000 0000 000000
2015-07-26 07:25:24,0.05,0.05,0.00,24.33,27.85,30.21,4.75,26.35,1015.15,2037.27,3388.19,3231.02,3532.11,350.02,345.68,2.59,0000 0000 0000 0000 000000
2015-07-26 07:30:25,-0.01,0.05,0.00,24.35,27.85,30.22,4.73,26.33,1015.17,2037.22,3388.00,3231.00,3532.03,349.64,345.29,2.62,0000 0000 0000 0000 000000
2015-07-26 07:35:26,0.01,0.05,0.00,24.36,27.87,30.21,4.80,26.39,1015.21,2037.13,3387.52,3230.92,3531.92,350.08,345.56,2.64,0000 0000 0000 0000 000000
2015-07-26 07:40:28,0.04,0.05,0.00,24.35,27.87,30.21,4.71,26.38,1015.25,2037.08,3387.01,3230.31,3531.22,349.77,345.35,2.67,0000 0000 0000 0000 000000
2015-07-26 07:45:29,0.00,0.05,0.00,24.35,27.87,30.22,4.71,26.41,1015.19,2037.02,3386.94,3230.03,3531.01,349.45,345.06,2.70,0000 0000 0000 0000 000000
2015-07-26 07:50:30,0.02,0.05,0.00,24.35,27.87,30.22,4.80,26.45,1015.18,2037.04,3386.55,3230.01,3531.00,350.06,345.68,2.73,0000 0000 0000 0000 000000
2015-07-26 07:55:31,0.03,0.05,0.00,24.37,27.87,30.23,4.67,26.35,1015.30,2037.07,3385.93,3229.99,3530.56,349.17,344.63,2.76,0000 0000 0000 0000 000000
2015-07-26 08:00:32,0.03,0.05,0.00,24.37,27.87,30.23,4.79,26.41,1015.42,2037.03,3385.11,3229.80,3530.02,350.53,345.77,2.79,0000 0000 0000 0000 000000
2015-07-26 08:05:34,0.03,0.05,0.00,24.36,27.88,30.24,4.70,26.21,1015.32,2037.02,3384.98,3229.15,3529.99,350.02,345.57,2.82,0000 0000 0000 0000 000000
2015-07-26 08:10:35,0.04,0.05,0.00,24.35,27.89,30.24,4.77,26.36,1015.24,2037.03,3384.27,3229.00,3529.35,350.45,346.10,2.85,0000 0000 0000 0000 000000
2015-07-26 08:15:36,0.01,0.05,0.00,24.35,27.90,30.24,4.77,26.27,1015.26,2037.02,3384.01,3229.00,3529.03,350.35,345.96,2.88,0000 0000 0000 0000 000000
2015-07-26 08:20:37,0.01,0.05,0.00,24.36,27.90,30.24,4.80,26.34,1015.40,2037.02,3383.81,3228.89,3529.00,350.05,345.67,2.91,0000 0000 0000 0000 000000
2015-07-26 08:25:38,0.06,0.06,0.00,24.36,27.90,30.25,4.73,26.24,1015.25,2037.00,3383.05,3228.17,3528.64,349.65,345.35,2.94,0000 0000 0000 0000 000000
2015-07-26 08:30:39,0.01,0.06,0.00,24.36,27.90,30.26,4.78,26.30,1015.20,2037.01,3382.97,3228.03,3528.17,350.22,345.79,2.97,0000 0000 0000 0000 000000
2015-07-26 08:35:41,0.02,0.06,0.00,24.36,27.90,30.25,4.75,26.23,1015.23,2037.00,3382.45,3228.00,3528.00,349.65,345.23,3.00,0000 0000 0000 0000 000000
2015-07-26 08:40:42,0.01,0.06,0.00,24.37,27.90,30.25,4.71,26.27,1015.19,2037.01,3382.00,3227.98,3527.91,349.75,345.24,3.03,0000 0000 0000 0000 000000
2015-07-26 08:45:44,0.06,0.06,0.00,24.36,27.90,30.26,4.81,26.28,1015.18,2037.00,3381.48,3227.49,3527.18,349.77,345.61,3.05,0000 0000 0000 0000 000000
2015-07-26 08:50:45,0.01,0.06,0.00,24.35,27.90,30.26,4.74,26.27,1015.18,2037.00,3381.01,3227.05,3527.00,350.53,346.11,3.08,0000 0000 0000 0000 000000
2015-07-26 08:55:46,0.01,0.06,0.00,24.37,27.91,30.26,4.70,26.31,1015.19,2037.00,3380.85,3227.01,3526.94,349.79,345.45,3.11,0000 0000 0000 0000 000000
2015-07-26 09:00:47,0.04,0.06,0.00,24.38,27.92,30.26,4.76,26.38,1015.20,2037.00,3380.08,3226.99,3526.31,349.96,345.31,3.14,0000 0000 0000 0000 000000
2015-07-26 09:05:49,0.01,0.06,0.00,24.38,27.92,30.27,4.75,26.21,1015.23,2037.00,3379.99,3226.88,3526.03,349.99,345.54,3.17,0000 0000 0000 0000 000000
2015-07-26 09:10:50,0.05,0.06,0.00,24.37,27.92,30.26,4.79,26.29,1015.34,2037.00,3379.50,3226.29,3525.99,350.02,345.68,3.20,0000 0000 0000 0000 000000
2015-07-26 09:15:51,0.02,0.06,0.00,24.37,27.92,30.27,4.70,26.25,1015.46,2037.00,3379.02,3226.04,3525.78,349.99,345.62,3.23,0000 0000 0000 0000 000000
2015-07-26 09:20:52,0.01,0.06,0.00,24.37,27.92,30.27,4.72,26.26,1015.45,2037.00,3378.94,3226.00,3525.11,350.11,345.51,3.26,0000 0000 0000 0000 000000
2015-07-26 09:25:53,0.02,0.07,0.00,24.37,27.92,30.28,4.64,26.27,1015.48,2037.00,3378.18,3225.99,3525.00,349.66,345.43,3.29,0000 0000 0000 0000 000000
2015-07-26 09:30:55,0.01,0.07,0.00,24.37,27.92,30.28,4.74,26.25,1015.61,2037.00,3377.99,3225.88,3524.96,350.01,345.75,3.32,0000 0000 0000 0000 000000
2015-07-26 09:35:56,0.06,0.07,0.00,24.37,27.92,30.29,4.74,26.18,1015.64,2037.00,3377.66,3225.41,3524.54,350.03,345.79,3.35,0000 0000 0000 0000 000000
2015-07-26 09:40:57,0.02,0.07,0.00,24.37,27.93,30.29,4.77,26.28,1015.64,2037.00,3377.02,3225.02,3524.01,350.51,346.23,3.38,0000 0000 0000 0000 000000
2015-07-26 09:45:58,0.00,0.07,0.00,24.37,27.93,30.28,4.76,26.27,1015.64,2037.00,3376.95,3225.00,3523.99,350.08,345.88,3.41,0000 0000 0000 0000 000000
2015-07-26 09:51:00,0.02,0.07,0.00,24.37,27.94,30.28,4.76,26.28,1015.64,2037.00,3376.37,3224.98,3523.87,349.92,345.70,3.44,0000 0000 0000 0000 000000
2015-07-26 09:56:01,0.03,0.07,0.00,24.37,27.95,30.29,4.71,26.38,1015.64,2036.99,3376.00,3224.79,3523.17,349.97,345.73,3.46,0000 0000 0000 0000 000000
2015-07-26 10:01:02,0.02,0.07,0.00,24.38,27.95,30.29,4.78,26.38,1015.64,2036.99,3375.84,3224.21,3523.00,350.45,346.21,3.49,0000 0000 0000 0000 000000
2015-07-26 10:06:04,0.03,0.07,0.00,24.37,27.95,30.29,4.67,26.24,1015.64,2036.99,3375.22,3224.06,3522.99,349.67,345.47,3.52,0000 0000 0000 0000 000000
2015-07-26 10:11:05,0.00,0.07,0.00,24.37,27.95,30.29,4.72,26.25,1015.64,2036.99,3375.01,3224.01,3522.94,349.74,345.55,3.55,0000 0000 0000 0000 000000
2015-07-26 10:16:07,0.01,0.07,0.00,24.38,27.95,30.29,4.71,26.38,1015.64,2036.98,3374.99,3224.00,3522.70,350.09,345.82,3.58,0000 0000 0000 0000 000000
2015-07-26 10:21:08,0.02,0.07,0.00,24.37,27.95,30.29,4.77,26.37,1015.64,2036.99,3374.76,3224.00,3522.15,350.14,345.62,3.61,0000 0000 0000 0000 000000
2015-07-26 10:26:09,0.01,0.07,0.00,24.37,27.95,30.30,4.67,26.16,1015.64,2036.98,3374.13,3223.98,3522.01,349.82,345.58,3.64,0000 0000 0000 0000 000000
2015-07-26 10:31:10,0.00,0.07,0.00,24.37,27.95,30.31,4.69,26.32,1015.64,2036.98,3374.00,3223.93,3522.00,349.63,345.34,3.67,0000 0000 0000 0000 000000
2015-07-26 10:36:12,0.03,0.07,0.00,24.37,27.95,30.30,4.75,26.38,1015.64,2036.99,3373.85,3223.38,3521.94,349.95,345.79,3.70,0000 0000 0000 0000 000000
2015-07-26 10:41:13,0.03,0.08,0.00,24.38,27.95,30.31,4.71,26.32,1015.64,2036.98,3373.17,3223.05,3521.53,350.37,346.10,3.73,0000 0000 0000 0000 000000
2015-07-26 10:46:14,0.01,0.08,0.00,24.37,27.95,30.31,4.76,26.39,1015.64,2036.98,3373.00,3223.00,3521.07,350.31,346.06,3.76,0000 0000 0000 0000 000000
2015-07-26 10:51:15,0.00,0.08,0.00,24.37,27.95,30.31,4.70,26.36,1015.64,2036.97,3372.98,3223.00,3521.00,350.01,345.70,3.79,0000 0000 0000 0000 000000
2015-07-26 10:56:17,0.01,0.08,0.00,24.37,27.95,30.33,4.73,26.50,1015.65,2036.98,3372.56,3223.00,3521.00,350.12,346.17,3.82,0000 0000 0000 0000 000000
2015-07-26 11:01:18,0.01,0.08,0.00,24.36,27.96,30.31,4.74,26.47,1015.65,2036.97,3372.03,3222.98,3520.97,349.63,345.53,3.85,0000 0000 0000 0000 000000
2015-07-26 11:06:20,0.01,0.08,0.00,24.39,27.96,30.30,4.81,26.46,1015.66,2036.98,3372.00,3222.89,3520.71,350.31,346.15,3.87,0000 0000 0000 0000 000000
2015-07-26 11:11:21,0.04,0.08,0.00,24.38,27.96,30.31,4.75,26.31,1015.66,2036.97,3371.85,3222.45,3520.08,350.16,345.93,3.90,0000 0000 0000 0000 000000
2015-07-26 11:16:22,0.03,0.08,0.00,24.37,27.96,30.31,4.72,26.37,1015.66,2036.98,3371.21,3222.11,3520.01,350.06,345.45,3.93,0000 0000 0000 0000 000000
2015-07-26 11:21:23,0.00,0.08,0.00,24.37,27.97,30.31,4.77,26.31,1015.70,2036.98,3371.01,3222.03,3520.00,350.05,345.83,3.96,0000 0000 0000 0000 000000
2015-07-26 11:26:24,0.01,0.08,0.00,24.37,27.96,30.30,4.75,26.38,1015.77,2036.98,3370.86,3222.00,3519.93,350.02,345.92,3.99,0000 0000 0000 0000 000000
2015-07-26 11:31:25,0.04,0.08,0.00,24.37,27.97,30.32,4.73,26.37,1015.77,2036.97,3370.10,3221.97,3519.37,350.17,346.05,4.02,0000 0000 0000 0000 000000
2015-07-26 11:36:26,0.01,0.08,0.00,24.37,27.97,30.32,4.67,26.28,1015.91,2036.97,3369.99,3221.80,3519.02,349.63,345.49,4.05,0000 0000 0000 0000 000000
2015-07-26 11:41:28,0.03,0.08,0.00,24.37,27.97,30.31,4.84,26.27,1016.08,2036.96,3369.65,3221.46,3519.00,349.85,346.13,4.08,0000 0000 0000 0000 000000
2015-07-26 11:46:29,0.02,0.08,0.00,24.36,27.97,30.31,4.65,26.43,1016.08,2036.95,3369.03,3221.04,3518.97,349.52,345.43,4.11,0000 0000 0000 0000 000000
2015-07-26 11:51:30,0.01,0.08,0.00,24.37,27.96,30.33,4.74,26.52,1016.03,2036.96,3368.99,3221.00,3518.82,349.85,345.79,4.14,0000 0000 0000 0000 000000
2015-07-26 11:56:31,0.02,0.08,0.00,24.37,27.96,30.31,4.79,26.60,1015.99,2036.94,3368.80,3221.00,3518.22,349.70,345.54,4.17,0000 0000 0000 0000 000000
2015-07-26 12:01:32,0.02,0.08,0.00,24.37,27.96,30.31,4.76,26.52,1015.95,2036.94,3368.10,3220.99,3518.02,350.09,345.94,4.20,0000 0000 0000 0000 000000
2015-07-26 12:06:34,0.00,0.08,0.00,24.35,27.96,30.31,4.74,26.54,1015.95,2036.98,3368.01,3220.99,3518.00,350.47,346.37,4.23,0000 0000 0000 0000 000000
2015-07-26 12:11:35,0.01,0.08,0.00,24.36,27.95,30.31,4.76,26.54,1015.95,2036.97,3367.93,3220.89,3517.99,350.12,346.12,4.26,0000 0000 0000 0000 000000
2015-07-26 12:16:36,0.05,0.09,0.00,24.36,27.95,30.31,4.69,26.47,1015.92,2036.98,3367.34,3220.40,3517.85,350.11,346.20,4.28,0000 0000 0000 0000 000000
2015-07-26 12:21:38,0.03,0.09,0.00,24.36,27.95,30.31,4.70,26.42,1015.82,2036.98,3367.01,3220.08,3517.32,350.17,346.14,4.31,0000 0000 0000 0000 000000
2015-07-26 12:26:39,-0.00,0.09,0.00,24.35,27.95,30.31,4.74,26.40,1015.83,2036.96,3366.95,3220.00,3517.01,350.30,346.23,4.34,0000 0000 0000 0000 000000
2015-07-26 12:31:41,0.02,0.09,0.00,24.35,27.95,30.31,4.74,26.37,1015.82,2036.97,3366.36,3220.00,3517.00,350.16,345.95,4.37,0000 0000 0000 0000 000000
2015-07-26 12:36:42,-0.00,0.09,0.00,24.35,27.95,30.31,4.75,26.64,1015.76,2036.94,3366.01,3219.99,3516.93,349.96,345.62,4.40,0000 0000 0000 0000 000000
2015-07-26 12:41:43,0.03,0.09,0.00,24.35,27.95,30.31,4.75,26.70,1015.67,2036.97,3365.90,3219.82,3516.47,349.78,345.59,4.43,0000 0000 0000 0000 000000
2015-07-26 12:46:45,0.04,0.09,0.00,24.35,27.95,30.30,4.76,26.65,1015.69,2036.95,3365.14,3219.26,3516.01,349.73,345.53,4.46,0000 0000 0000 0000 000000
2015-07-26 12:51:46,0.01,0.09,0.00,24.34,27.95,30.32,4.78,26.46,1015.82,2036.98,3365.01,3219.13,3516.00,350.33,346.14,4.49,0000 0000 0000 0000 000000
2015-07-26 12:56:47,0.00,0.09,0.00,24.34,27.95,30.32,4.69,26.58,1015.75,2036.98,3364.91,3219.03,3515.98,349.82,345.75,4.52,0000 0000 0000 0000 000000
2015-07-26 13:01:48,0.03,0.09,0.00,24.34,27.95,30.31,4.62,26.38,1015.82,2036.97,3364.21,3219.00,3515.87,349.81,345.78,4.55,0000 0000 0000 0000 000000
2015-07-26 13:06:49,0.01,0.09,0.00,24.35,27.95,30.32,4.70,26.32,1015.96,2036.99,3364.05,3219.00,3515.77,350.02,345.94,4.58,0000 0000 0000 0000 000000